| time (UTC) | temp F | wind direction | speed MPH | gust MPH | rain 1hr in | rain 24hr in | rain mn in | humidity % | barometer mb |
| 20260508052904 | 59 | 63 | 0.0 | 2.0 | 0.00 | 1.01 | 1.01 | 90 | 1014.1 |
| 20260508051904 | 59 | 63 | 1.0 | 2.0 | 0.00 | 1.01 | 1.01 | 90 | 1014.1 |
| 20260508051641 | 58 | 63 | 0.0 | 2.0 | 0.00 | 1.01 | 1.01 | 89 | 1014.0 |
| 20260508045904 | 58 | 63 | 0.0 | 2.0 | 0.00 | 1.01 | 1.01 | 89 | 1013.9 |
| 20260508044903 | 58 | 63 | 1.0 | 2.0 | 0.00 | 1.01 | 1.01 | 89 | 1013.8 |
| 20260508043856 | 58 | 63 | 0.0 | 0.0 | 0.00 | 1.01 | 1.01 | 89 | 1013.8 |
| 20260508042855 | 57 | 63 | 0.0 | 1.0 | 0.00 | 1.01 | 1.01 | 88 | 1013.5 |
| 20260508041858 | 57 | 63 | 0.0 | 2.0 | 0.00 | 1.01 | 1.01 | 88 | 1013.6 |
| 20260508040858 | 58 | 63 | 1.0 | 1.0 | 0.00 | 1.01 | 1.01 | 89 | 1013.5 |
| 20260508040223 | 57 | 63 | 1.0 | 2.0 | 0.00 | 1.02 | 1.01 | 88 | 1013.5 |
| 20260508035945 | 57 | 63 | 0.0 | 2.0 | 0.00 | 1.02 | 1.01 | 88 | 1013.4 |
| 20260508033857 | 57 | 63 | 1.0 | 2.0 | 0.00 | 1.02 | 1.01 | 88 | 1013.5 |
| 20260508032852 | 57 | 63 | 0.0 | 1.0 | 0.00 | 1.02 | 1.01 | 88 | 1013.4 |
| 20260508031853 | 57 | 63 | 0.0 | 1.0 | 0.00 | 1.02 | 1.01 | 88 | 1013.3 |
| 20260508030848 | 57 | 63 | 0.0 | 1.0 | 0.00 | 1.02 | 1.01 | 88 | 1013.4 |
| 20260508025851 | 57 | 63 | 0.0 | 0.0 | 0.00 | 1.03 | 1.01 | 88 | 1013.4 |
| 20260508025437 | 57 | 63 | 0.0 | 0.0 | 0.00 | 1.05 | 1.01 | 88 | 1013.4 |
| 20260508023850 | 57 | 63 | 0.0 | 1.0 | 0.00 | 1.06 | 1.01 | 87 | 1013.6 |
| 20260508023602 | 57 | 63 | 0.0 | 2.0 | 0.00 | 1.07 | 1.01 | 87 | 1013.6 |
| 20260508021846 | 57 | 63 | 0.0 | 3.0 | 0.00 | 1.07 | 1.01 | 88 | 1013.5 |
| 20260508020847 | 58 | 63 | 2.0 | 3.0 | 0.00 | 1.08 | 1.01 | 88 | 1013.5 |
| 20260508015848 | 57 | 63 | 1.0 | 3.0 | 0.00 | 1.08 | 1.01 | 88 | 1013.7 |
| 20260508014849 | 57 | 63 | 2.0 | 3.0 | 0.00 | 1.08 | 1.01 | 88 | 1013.8 |
| 20260508013850 | 57 | 63 | 3.0 | 5.0 | 0.00 | 1.08 | 1.01 | 87 | 1013.7 |
| 20260508013614 | 57 | 59 | 4.0 | 5.0 | 0.00 | 1.08 | 1.01 | 87 | 1013.9 |
| 20260508011844 | 57 | 71 | 3.0 | 5.0 | 1.01 | 1.08 | 1.01 | 86 | 1013.8 |
| 20260508010844 | 57 | 68 | 4.0 | 6.0 | 1.01 | 1.08 | 1.01 | 85 | 1013.8 |
| 20260508005844 | 57 | 58 | 4.0 | 6.0 | 1.01 | 0.07 | 1.01 | 84 | 1013.9 |
| 20260508004843 | 57 | 83 | 4.0 | 5.0 | 1.01 | 0.07 | 1.01 | 83 | 1013.7 |
| 20260508003847 | 57 | 82 | 4.0 | 4.0 | 1.01 | 0.07 | 1.01 | 82 | 1013.6 |
| 20260508002855 | 58 | 97 | 2.0 | 3.0 | 0.00 | 0.07 | 0.00 | 81 | 1013.8 |
| 20260508002846 | 57 | 142 | 0.0 | 3.0 | 1.01 | 0.07 | 1.01 | 81 | 1013.8 |
| 20260508002001 | 57 | 110 | 1.0 | 3.0 | 0.00 | 0.07 | 0.00 | 81 | 1013.9 |
| 20260507235833 | 58 | 103 | 2.0 | 3.0 | 0.00 | 0.07 | 0.00 | 81 | 1013.9 |
| 20260507234834 | 58 | 97 | 3.0 | 3.0 | 0.00 | 0.07 | 0.00 | 81 | 1014.2 |
| 20260507233834 | 58 | 97 | 2.0 | 4.0 | 0.00 | 0.07 | 0.00 | 81 | 1014.3 |
| 20260507232837 | 57 | 128 | 2.0 | 5.0 | 0.00 | 0.07 | 0.00 | 81 | 1014.5 |
| 20260507231834 | 57 | 89 | 4.0 | 5.0 | 0.00 | 0.07 | 0.00 | 81 | 1014.5 |
| 20260507230833 | 57 | 111 | 2.0 | 4.0 | 0.00 | 0.07 | 0.00 | 81 | 1014.5 |
| 20260507225833 | 57 | 157 | 1.0 | 3.0 | 0.00 | 0.07 | 0.00 | 82 | 1014.6 |
| 20260507224836 | 57 | 165 | 1.0 | 4.0 | 0.00 | 0.07 | 0.00 | 82 | 1014.6 |
| 20260507223835 | 57 | 151 | 1.0 | 3.0 | 0.00 | 0.07 | 0.00 | 82 | 1014.5 |
| 20260507223647 | 57 | 145 | 1.0 | 2.0 | 0.00 | 0.07 | 0.00 | 82 | 1014.4 |
| 20260507221833 | 57 | 159 | 0.0 | 2.0 | 0.00 | 0.07 | 0.00 | 82 | 1014.4 |
| 20260507221442 | 57 | 221 | 1.0 | 3.0 | 0.00 | 0.07 | 0.00 | 82 | 1014.4 |
| 20260507215835 | 57 | 162 | 1.0 | 2.0 | 0.00 | 0.07 | 0.07 | 82 | 1014.5 |
| 20260507214833 | 58 | 159 | 0.0 | 3.0 | 0.00 | 0.07 | 0.07 | 82 | 1014.4 |
| 20260507213834 | 58 | 178 | 1.0 | 2.0 | 0.00 | 0.07 | 0.07 | 82 | 1014.5 |
| 20260507213624 | 58 | 233 | 0.0 | 3.0 | 0.00 | 0.07 | 0.07 | 81 | 1014.5 |
| 20260507211833 | 58 | 176 | 0.0 | 4.0 | 0.00 | 0.07 | 0.07 | 81 | 1014.6 |
| 20260507210943 | 59 | 238 | 0.0 | 3.0 | 0.00 | 0.07 | 0.07 | 80 | 1014.7 |
| 20260507210848 | 58 | 137 | 1.0 | 3.0 | 0.00 | 0.07 | 0.07 | 80 | 1014.5 |
| 20260507204832 | 59 | 142 | 0.0 | 5.0 | 0.00 | 0.07 | 0.07 | 79 | 1014.6 |
| 20260507203833 | 59 | 120 | 0.0 | 3.0 | 0.00 | 0.07 | 0.07 | 79 | 1014.7 |
| 20260507202836 | 59 | 7 | 0.0 | 3.0 | 0.00 | 0.07 | 0.07 | 79 | 1014.7 |
| 20260507201838 | 60 | 185 | 0.0 | 4.0 | 0.00 | 0.07 | 0.07 | 78 | 1014.7 |
| 20260507200832 | 60 | 159 | 0.0 | 2.0 | 0.00 | 0.07 | 0.07 | 77 | 1014.7 |
| 20260507200157 | 61 | 100 | 2.0 | 5.0 | 0.00 | 0.07 | 0.07 | 75 | 1014.5 |
| 20260507195903 | 61 | 154 | 1.0 | 5.0 | 0.00 | 0.07 | 0.07 | 76 | 1014.7 |
| 20260507194833 | 61 | 123 | 3.0 | 5.0 | 0.00 | 0.07 | 0.07 | 76 | 1014.5 |
| 20260507193211 | 62 | 162 | 4.0 | 7.0 | 0.00 | 0.07 | 0.07 | 73 | 1014.3 |
| 20260507192909 | 62 | 72 | 3.0 | 7.0 | 0.00 | 0.07 | 0.07 | 74 | 1014.5 |
| 20260507191938 | 62 | 76 | 4.0 | 7.0 | 0.00 | 0.07 | 0.07 | 72 | 1014.2 |
| 20260507191918 | 63 | 113 | 5.0 | 7.0 | 0.00 | 0.07 | 0.07 | 70 | 1014.2 |
| 20260507191842 | 62 | 148 | 2.0 | 7.0 | 0.00 | 0.07 | 0.07 | 74 | 1014.5 |
| 20260507183834 | 63 | 89 | 5.0 | 9.0 | 0.00 | 0.07 | 0.07 | 70 | 1014.2 |
| 20260507182835 | 63 | 96 | 2.0 | 10.0 | 0.00 | 0.07 | 0.07 | 69 | 1014.1 |
| 20260507182205 | 64 | 86 | 5.0 | 10.0 | 0.00 | 0.07 | 0.07 | 69 | 1013.9 |
| 20260507181911 | 64 | 110 | 6.0 | 10.0 | 0.00 | 0.07 | 0.07 | 69 | 1014.0 |
| 20260507175833 | 65 | 159 | 4.0 | 12.0 | 0.00 | 0.07 | 0.07 | 69 | 1013.7 |
| 20260507174836 | 65 | 89 | 4.0 | 10.0 | 0.00 | 0.07 | 0.07 | 68 | 1013.6 |
| 20260507174735 | 65 | 117 | 5.0 | 9.0 | 0.00 | 0.07 | 0.07 | 68 | 1013.5 |
| 20260507172834 | 65 | 111 | 6.0 | 12.0 | 0.00 | 0.07 | 0.07 | 68 | 1013.5 |
| 20260507171850 | 66 | 80 | 7.0 | 15.0 | 0.00 | 0.07 | 0.07 | 67 | 1013.4 |
| 20260507170835 | 66 | 99 | 7.0 | 13.0 | 0.00 | 0.07 | 0.07 | 68 | 1013.2 |
| 20260507165835 | 66 | 102 | 5.0 | 12.0 | 0.00 | 0.07 | 0.07 | 68 | 1013.1 |
| 20260507164832 | 66 | 90 | 6.0 | 13.0 | 0.00 | 0.07 | 0.07 | 68 | 1013.1 |
| 20260507163833 | 67 | 114 | 6.0 | 13.0 | 0.00 | 0.07 | 0.07 | 68 | 1013.0 |
| 20260507162834 | 67 | 66 | 6.0 | 13.0 | 0.00 | 0.07 | 0.07 | 67 | 1013.1 |
| 20260507162654 | 67 | 149 | 6.0 | 14.0 | 0.00 | 0.07 | 0.07 | 68 | 1013.3 |
| 20260507161642 | 67 | 127 | 8.0 | 14.0 | 0.00 | 0.07 | 0.07 | 67 | 1013.3 |
| 20260507155834 | 67 | 94 | 7.0 | 13.0 | 0.00 | 0.07 | 0.07 | 68 | 1013.3 |
| 20260507154833 | 67 | 104 | 9.0 | 16.0 | 0.00 | 0.07 | 0.07 | 67 | 1013.2 |
| 20260507154328 | 68 | 99 | 10.0 | 16.0 | 0.00 | 0.07 | 0.07 | 69 | 1013.1 |
| 20260507154307 | 68 | 100 | 8.0 | 15.0 | 0.00 | 0.07 | 0.07 | 69 | 1013.3 |
| 20260507153927 | 68 | 86 | 7.0 | 16.0 | 0.00 | 0.07 | 0.07 | 68 | 1013.1 |
| 20260507150833 | 69 | 71 | 11.0 | 17.0 | 0.00 | 0.07 | 0.07 | 69 | 1013.0 |
| 20260507145832 | 68 | 49 | 8.0 | 17.0 | 0.00 | 0.07 | 0.07 | 71 | 1013.2 |
| 20260507144833 | 68 | 68 | 12.0 | 17.0 | 0.00 | 0.07 | 0.07 | 71 | 1013.2 |
| 20260507144618 | 69 | 78 | 11.0 | 18.0 | 0.00 | 0.07 | 0.07 | 71 | 1013.2 |
| 20260507143758 | 71 | 100 | 11.0 | 17.0 | 0.00 | 0.07 | 0.07 | 67 | 1013.2 |
| 20260507141834 | 72 | 62 | 7.0 | 17.0 | 0.00 | 0.07 | 0.07 | 60 | 1013.2 |
| 20260507140832 | 74 | 76 | 10.0 | 15.0 | 0.00 | 0.07 | 0.07 | 53 | 1013.1 |
| 20260507135832 | 76 | 310 | 3.0 | 6.0 | 0.00 | 0.07 | 0.07 | 47 | 1013.2 |
| 20260507135356 | 75 | 319 | 2.0 | 4.0 | 0.00 | 0.07 | 0.07 | 46 | 1013.2 |
| 20260507135005 | 75 | 1 | 2.0 | 6.0 | 0.00 | 0.07 | 0.07 | 49 | 1013.2 |
| 20260507132830 | 76 | 286 | 1.0 | 5.0 | 0.00 | 0.07 | 0.07 | 46 | 1013.2 |
| 20260507131831 | 76 | 243 | 1.0 | 4.0 | 0.00 | 0.07 | 0.07 | 46 | 1013.4 |
| 20260507130829 | 77 | 250 | 1.0 | 5.0 | 0.00 | 0.07 | 0.07 | 46 | 1013.4 |
| 20260507125831 | 76 | 238 | 1.0 | 5.0 | 0.00 | 0.07 | 0.07 | 49 | 1013.4 |
| 20260507124829 | 76 | 213 | 1.0 | 4.0 | 0.00 | 0.07 | 0.07 | 48 | 1013.3 |
| 20260507123833 | 77 | 252 | 2.0 | 4.0 | 0.00 | 0.07 | 0.07 | 48 | 1013.5 |
| 20260507122829 | 76 | 0 | 1.0 | 9.0 | 0.00 | 0.07 | 0.07 | 47 | 1013.3 |
| 20260507121824 | 76 | 296 | 2.0 | 6.0 | 0.00 | 0.07 | 0.07 | 49 | 1013.5 |
| 20260507120827 | 76 | 247 | 1.0 | 6.0 | 0.00 | 0.07 | 0.07 | 51 | 1013.5 |
| 20260507120718 | 76 | 168 | 4.0 | 6.0 | 0.00 | 0.07 | 0.07 | 49 | 1013.6 |
| 20260507114823 | 76 | 250 | 2.0 | 6.0 | 0.00 | 0.07 | 0.07 | 50 | 1013.5 |
| 20260507113823 | 76 | 227 | 2.0 | 5.0 | 0.00 | 0.07 | 0.07 | 50 | 1013.7 |
| 20260507112821 | 75 | 220 | 2.0 | 4.0 | 0.00 | 0.07 | 0.07 | 49 | 1013.7 |
| 20260507112629 | 74 | 195 | 1.0 | 7.0 | 0.00 | 0.07 | 0.07 | 54 | 1013.8 |
| 20260507110815 | 73 | 186 | 2.0 | 5.0 | 0.00 | 0.07 | 0.07 | 56 | 1013.8 |
| 20260507110639 | 72 | 279 | 4.0 | 5.0 | 0.00 | 0.07 | 0.07 | 54 | 1013.9 |
| 20260507104814 | 72 | 265 | 2.0 | 7.0 | 0.00 | 0.07 | 0.07 | 60 | 1013.9 |
| 20260507103809 | 71 | 219 | 2.0 | 5.0 | 0.00 | 0.07 | 0.07 | 60 | 1014.1 |
| 20260507103456 | 70 | 278 | 3.0 | 9.0 | 0.00 | 0.07 | 0.07 | 62 | 1014.2 |
| 20260507101810 | 70 | 283 | 2.0 | 7.0 | 0.00 | 0.07 | 0.07 | 61 | 1014.2 |
| 20260507101625 | 69 | 264 | 2.0 | 6.0 | 0.00 | 0.07 | 0.07 | 64 | 1014.3 |
| 20260507095807 | 68 | 250 | 2.0 | 4.0 | 0.00 | 0.07 | 0.07 | 65 | 1014.3 |
| 20260507095454 | 69 | 281 | 3.0 | 5.0 | 0.00 | 0.07 | 0.07 | 61 | 1014.3 |
| 20260507093807 | 69 | 4 | 3.0 | 6.0 | 0.00 | 0.07 | 0.07 | 62 | 1014.3 |
| 20260507092809 | 69 | 343 | 3.0 | 6.0 | 0.00 | 0.07 | 0.07 | 67 | 1014.4 |
| 20260507092645 | 67 | 324 | 2.0 | 5.0 | 0.00 | 0.07 | 0.07 | 67 | 1014.3 |
| 20260507090807 | 66 | 279 | 3.0 | 7.0 | 0.00 | 0.07 | 0.07 | 66 | 1014.3 |
| 20260507085806 | 66 | 212 | 2.0 | 6.0 | 0.00 | 0.07 | 0.07 | 66 | 1014.3 |
| 20260507084809 | 66 | 247 | 2.0 | 5.0 | 0.00 | 0.07 | 0.07 | 68 | 1014.4 |
| 20260507083803 | 66 | 241 | 2.0 | 4.0 | 0.00 | 0.07 | 0.07 | 69 | 1014.2 |
| 20260507082806 | 66 | 279 | 2.0 | 5.0 | 0.00 | 0.07 | 0.07 | 68 | 1014.1 |
| 20260507081804 | 67 | 274 | 3.0 | 5.0 | 0.00 | 0.07 | 0.07 | 73 | 1014.0 |
| 20260507080806 | 65 | 286 | 1.0 | 5.0 | 0.00 | 0.07 | 0.07 | 73 | 1013.9 |
| 20260507080325 | 64 | 281 | 1.0 | 6.0 | 0.00 | 0.07 | 0.07 | 81 | 1013.8 |
| 20260507075924 | 65 | 268 | 2.0 | 4.0 | 0.00 | 0.07 | 0.07 | 77 | 1013.9 |
| 20260507073805 | 63 | 295 | 1.0 | 3.0 | 0.00 | 0.07 | 0.07 | 85 | 1013.9 |
| 20260507072807 | 62 | 155 | 0.0 | 4.0 | 0.00 | 0.07 | 0.07 | 85 | 1013.8 |
| 20260507071804 | 62 | 141 | 1.0 | 3.0 | 0.00 | 0.07 | 0.07 | 86 | 1014.0 |
| 20260507070805 | 61 | 151 | 2.0 | 4.0 | 0.00 | 0.07 | 0.07 | 88 | 1013.9 |
| 20260507070305 | 60 | 71 | 0.0 | 2.0 | 0.00 | 0.07 | 0.07 | 90 | 1013.9 |
| 20260507065919 | 60 | 134 | 1.0 | 3.0 | 0.00 | 0.07 | 0.07 | 88 | 1013.9 |
| 20260507063806 | 60 | 71 | 1.0 | 3.0 | 0.00 | 0.07 | 0.07 | 91 | 1013.8 |
| 20260507063428 | 60 | 178 | 0.0 | 3.0 | 0.00 | 0.07 | 0.07 | 91 | 1013.8 |
| 20260507061804 | 60 | 96 | 1.0 | 4.0 | 0.00 | 0.08 | 0.07 | 92 | 1013.8 |
| 20260507060802 | 59 | 73 | 2.0 | 3.0 | 0.00 | 0.09 | 0.07 | 92 | 1013.9 |
| 20260507055804 | 59 | 343 | 0.0 | 3.0 | 0.00 | 0.09 | 0.07 | 92 | 1013.7 |
| 20260507054803 | 58 | 87 | 0.0 | 3.0 | 0.00 | 0.09 | 0.07 | 92 | 1013.6 |